CDT,Max TemperatureF,Mean TemperatureF,Min TemperatureF,Max Dew PointF,MeanDew PointF,Min DewpointF,Max Humidity, Mean Humidity, Min Humidity, Max Sea Level PressureIn, Mean Sea Level PressureIn, Min Sea Level PressureIn, Max VisibilityMiles, Mean VisibilityMiles, Min VisibilityMiles, Max Wind SpeedMPH, Mean Wind SpeedMPH, Max Gust SpeedMPH,PrecipitationIn, CloudCover, Events, WindDirDegrees
2013-9-1,102,90,78,70,67,65,71,48,30,29.99,29.92,29.84,10,10,10,18,6,16,0.00,0,Thunderstorm,157
2013-9-2,100,90,80,70,68,64,69,51,32,30.06,29.99,29.93,10,10,10,12,6,22,0.00,1,,301
2013-9-3,100,90,79,71,67,63,69,51,31,30.08,30.00,29.91,10,10,10,14,4,25,0.05,2,Rain-Thunderstorm,256
2013-9-4,100,90,80,70,68,65,71,54,33,30.13,30.05,29.99,10,10,10,16,7,28,0.12,1,Rain-Thunderstorm,151
2013-9-5,98,86,75,72,68,64,85,56,34,30.19,30.11,30.02,10,10,10,15,4,22,0.00,1,Thunderstorm,116
2013-9-6,98,86,75,71,67,60,82,54,28,30.17,30.10,30.02,10,10,10,12,4,,0.00,0,,140
2013-9-7,98,86,75,73,69,62,85,63,31,30.12,30.06,29.98,10,10,10,20,5,34,0.00,0,,132
2013-9-8,95,84,72,72,69,64,91,66,37,30.09,30.02,29.91,10,10,10,15,4,23,0.00,1,Thunderstorm,123
2013-9-9,93,83,73,73,69,63,91,74,37,30.09,30.04,29.98,10,10,7,22,5,34,0.16,3,Rain-Thunderstorm,126
2013-9-10,91,82,73,75,71,68,94,80,47,30.17,30.10,30.03,10,8,2,12,4,18,0.24,4,Rain,112
2013-9-11,93,83,73,73,68,62,91,66,36,30.21,30.13,30.08,10,10,10,10,3,16,0.00,1,,99
2013-9-12,91,82,73,69,67,63,87,66,38,30.14,30.08,30.01,10,10,10,5,2,,0.00,1,,137
2013-9-13,99,88,78,69,64,60,69,48,28,30.05,29.99,29.89,10,10,10,10,4,16,0.00,1,,167
2013-9-14,98,86,75,69,64,61,73,47,30,30.02,29.97,29.91,10,10,10,9,2,20,0.00,1,,127
2013-9-15,93,84,75,72,69,66,87,62,42,30.11,30.05,30.01,10,10,10,12,5,,0.00,1,,116
2013-9-16,91,83,75,73,67,56,84,60,31,30.16,30.11,30.05,10,10,10,12,4,16,0.00,1,,109
2013-9-17,91,83,75,74,70,64,85,66,43,30.16,30.06,29.95,10,10,10,10,4,,0.00,2,,112
2013-9-18,95,85,75,73,68,63,87,60,34,30.10,30.04,29.95,10,10,10,12,5,17,0.00,0,,143
2013-9-19,93,84,75,74,73,69,94,83,46,30.00,29.92,29.86,10,8,2,12,6,18,1.05,6,Rain-Thunderstorm,30
2013-9-20,78,74,71,75,73,68,94,91,84,29.99,29.88,29.82,10,9,1,15,5,24,2.18,8,Rain-Thunderstorm,358
2013-9-21,84,75,66,70,57,44,94,60,24,30.04,29.97,29.90,10,10,10,15,10,25,0.00,2,,344
2013-9-22,84,73,62,56,52,49,70,50,30,30.01,29.95,29.88,10,10,10,9,4,,0.00,0,,350
2013-9-23,88,75,62,58,54,51,75,51,28,29.94,29.89,29.84,10,10,2,9,2,,0.00,0,,119
2013-9-24,95,80,66,61,59,56,81,51,28,30.01,29.96,29.91,10,10,10,7,1,,0.00,0,,358
2013-9-25,95,82,68,62,59,55,76,49,29,29.98,29.93,29.86,10,10,10,9,2,,0.00,0,,122
2013-9-26,91,81,71,69,59,54,72,47,28,29.97,29.92,29.88,10,10,10,15,5,22,0.00,0,,136
2013-9-27,78,76,73,73,71,71,94,87,79,30.00,29.96,29.90,10,10,10,9,7,17,0.00,3,,122
2013-9-28,,,,,,,,,,,,,,,,,,,,,,
2013-9-29,,,,,,,,,,,,,,,,,,,,,,
2013-9-30,,,,,,,,,,,,,,,,,,,,,,